TimeEST,TemperatureF,Dew PointF,Humidity,Sea Level PressureIn,VisibilityMPH,Wind Direction,Wind SpeedMPH,Gust SpeedMPH,PrecipitationIn,Events,Conditions,WindDirDegrees,DateUTC
12:15 AM,29.1,26.6,90,30.32,10.0,North,5.8,-,N/A,,Overcast,350,2013-12-07 05:15:00
12:35 AM,29.1,26.6,90,30.31,10.0,NNE,3.5,-,N/A,,Overcast,20,2013-12-07 05:35:00
12:55 AM,28.9,26.6,91,30.32,10.0,NNW,3.5,-,N/A,,Overcast,340,2013-12-07 05:55:00
1:15 AM,28.9,26.6,91,30.32,10.0,NNW,3.5,-,N/A,,Overcast,330,2013-12-07 06:15:00
1:35 AM,28.8,26.4,91,30.33,10.0,NNW,8.1,-,N/A,,Overcast,340,2013-12-07 06:35:00
1:55 AM,28.6,25.9,90,30.33,10.0,NNW,3.5,-,N/A,,Overcast,340,2013-12-07 06:55:00
2:15 AM,28.4,25.7,90,30.34,10.0,NNW,5.8,-,N/A,,Overcast,330,2013-12-07 07:15:00
2:35 AM,28.4,25.7,90,30.35,10.0,North,5.8,-,N/A,,Overcast,350,2013-12-07 07:35:00
2:55 AM,28.4,25.7,90,30.36,10.0,NNW,4.6,-,N/A,,Overcast,340,2013-12-07 07:55:00
3:15 AM,28.4,25.7,90,30.37,10.0,NNW,6.9,-,N/A,,Overcast,340,2013-12-07 08:15:00
3:35 AM,28.0,25.5,90,30.37,10.0,NNW,4.6,-,N/A,,Overcast,340,2013-12-07 08:35:00
3:55 AM,28.0,25.3,90,30.38,10.0,NNW,5.8,-,N/A,,Overcast,340,2013-12-07 08:55:00
4:15 AM,27.9,25.3,90,30.39,7.0,NNW,4.6,-,N/A,,Overcast,340,2013-12-07 09:15:00
4:35 AM,27.7,25.0,90,30.39,10.0,NNW,5.8,-,N/A,,Overcast,340,2013-12-07 09:35:00
4:55 AM,27.5,24.8,90,30.41,10.0,NW,4.6,-,N/A,,Overcast,320,2013-12-07 09:55:00
5:15 AM,27.5,24.3,88,30.42,10.0,NNW,5.8,-,N/A,,Overcast,340,2013-12-07 10:15:00
5:35 AM,27.3,23.4,85,30.43,10.0,NNW,4.6,-,N/A,,Overcast,340,2013-12-07 10:35:00
5:55 AM,27.1,22.5,83,30.44,10.0,NNW,4.6,-,N/A,,Overcast,330,2013-12-07 10:55:00
6:15 AM,26.6,21.9,82,30.45,10.0,NNW,3.5,-,N/A,,Overcast,340,2013-12-07 11:15:00
6:35 AM,26.6,21.9,82,30.46,10.0,North,4.6,-,N/A,,Overcast,350,2013-12-07 11:35:00
6:55 AM,26.6,22.1,83,30.47,10.0,NNW,4.6,-,N/A,,Overcast,340,2013-12-07 11:55:00
7:15 AM,26.4,22.1,84,30.48,10.0,North,4.6,-,N/A,,Overcast,350,2013-12-07 12:15:00
7:35 AM,26.4,22.1,84,30.49,10.0,NNW,3.5,-,N/A,,Overcast,340,2013-12-07 12:35:00
7:55 AM,26.4,22.1,84,30.49,10.0,North,4.6,-,N/A,,Overcast,360,2013-12-07 12:55:00
8:15 AM,26.4,22.1,84,30.50,10.0,North,3.5,-,N/A,,Overcast,360,2013-12-07 13:15:00
8:35 AM,26.4,22.1,84,30.51,10.0,Calm,Calm,-,N/A,,Overcast,0,2013-12-07 13:35:00
8:55 AM,26.6,22.3,84,30.52,10.0,North,4.6,-,N/A,,Overcast,360,2013-12-07 13:55:00
9:15 AM,26.6,22.1,83,30.53,10.0,Calm,Calm,-,N/A,,Overcast,0,2013-12-07 14:15:00
9:35 AM,26.6,21.0,79,30.54,10.0,NNE,6.9,-,N/A,,Overcast,20,2013-12-07 14:35:00
9:55 AM,26.6,20.8,79,30.54,10.0,North,8.1,-,N/A,,Overcast,360,2013-12-07 14:55:00
10:15 AM,26.4,20.3,78,30.55,10.0,North,5.8,-,N/A,,Overcast,350,2013-12-07 15:15:00
10:35 AM,26.4,20.5,78,30.55,10.0,NNW,5.8,-,N/A,,Overcast,330,2013-12-07 15:35:00
10:55 AM,26.6,19.6,75,30.55,10.0,NNE,4.6,-,N/A,,Overcast,30,2013-12-07 15:55:00
11:15 AM,26.8,20.3,77,30.55,10.0,North,5.8,-,N/A,,Overcast,10,2013-12-07 16:15:00
11:35 AM,26.6,19.9,76,30.54,10.0,North,5.8,-,N/A,,Overcast,10,2013-12-07 16:35:00
11:55 AM,26.6,20.3,77,30.54,10.0,North,4.6,-,N/A,,Overcast,350,2013-12-07 16:55:00
12:15 PM,27.0,20.3,76,30.53,10.0,North,4.6,-,N/A,,Overcast,350,2013-12-07 17:15:00
12:35 PM,27.0,20.3,76,30.53,10.0,NNW,3.5,-,N/A,,Overcast,330,2013-12-07 17:35:00
12:55 PM,27.0,19.8,74,30.53,10.0,North,3.5,-,N/A,,Overcast,10,2013-12-07 17:55:00
1:15 PM,27.0,19.4,73,30.53,10.0,North,4.6,-,N/A,,Overcast,350,2013-12-07 18:15:00
1:35 PM,27.1,19.4,73,30.52,10.0,North,4.6,-,N/A,,Overcast,360,2013-12-07 18:35:00
1:55 PM,26.6,18.9,73,30.52,10.0,North,4.6,-,N/A,,Overcast,360,2013-12-07 18:55:00
2:15 PM,27.3,19.0,71,30.51,10.0,NW,4.6,-,N/A,,Mostly Cloudy,310,2013-12-07 19:15:00
2:35 PM,27.9,19.4,71,30.51,10.0,NW,3.5,-,N/A,,Overcast,320,2013-12-07 19:35:00
2:55 PM,28.0,18.5,67,30.51,10.0,Calm,Calm,-,N/A,,Mostly Cloudy,0,2013-12-07 19:55:00
3:15 PM,28.2,19.8,71,30.51,10.0,North,5.8,-,N/A,,Overcast,350,2013-12-07 20:15:00
3:35 PM,26.6,18.9,73,30.52,10.0,North,3.5,-,N/A,,Scattered Clouds,360,2013-12-07 20:35:00
3:55 PM,26.6,18.1,70,30.53,10.0,Calm,Calm,-,N/A,,Scattered Clouds,0,2013-12-07 20:55:00
4:15 PM,26.6,19.0,73,30.54,10.0,NNW,3.5,-,N/A,,Mostly Cloudy,330,2013-12-07 21:15:00
4:35 PM,26.6,19.4,74,30.54,10.0,Calm,Calm,-,N/A,,Mostly Cloudy,0,2013-12-07 21:35:00
4:55 PM,25.9,18.7,74,30.54,10.0,Calm,Calm,-,N/A,,Mostly Cloudy,0,2013-12-07 21:55:00
5:15 PM,25.5,19.2,77,30.54,10.0,Calm,Calm,-,N/A,,Scattered Clouds,0,2013-12-07 22:15:00
5:35 PM,25.5,19.2,77,30.55,10.0,Calm,Calm,-,N/A,,Scattered Clouds,0,2013-12-07 22:35:00
5:55 PM,25.2,18.1,75,30.55,10.0,Calm,Calm,-,N/A,,Clear,0,2013-12-07 22:55:00
6:15 PM,24.8,17.8,75,30.56,10.0,Calm,Calm,-,N/A,,Clear,0,2013-12-07 23:15:00
6:35 PM,24.4,18.1,77,30.56,10.0,Calm,Calm,-,N/A,,Clear,0,2013-12-07 23:35:00
6:55 PM,23.5,17.6,78,30.56,10.0,Calm,Calm,-,N/A,,Clear,0,2013-12-07 23:55:00
7:15 PM,23.2,17.1,77,30.56,10.0,Calm,Calm,-,N/A,,Clear,0,2013-12-08 00:15:00
7:35 PM,22.8,16.5,77,30.57,10.0,North,3.5,-,N/A,,Clear,350,2013-12-08 00:35:00
7:55 PM,23.0,16.2,75,30.55,10.0,North,5.8,-,N/A,,Clear,10,2013-12-08 00:55:00
8:15 PM,22.8,15.6,74,30.56,10.0,North,5.8,-,N/A,,Clear,360,2013-12-08 01:15:00
8:35 PM,22.1,15.3,75,30.56,10.0,NNE,3.5,-,N/A,,Clear,20,2013-12-08 01:35:00
8:55 PM,21.9,15.3,76,30.56,10.0,Calm,Calm,-,N/A,,Clear,0,2013-12-08 01:55:00
9:15 PM,21.2,15.4,78,30.56,10.0,Calm,Calm,-,N/A,,Clear,0,2013-12-08 02:15:00
9:35 PM,21.2,15.4,78,30.56,10.0,NNE,3.5,-,N/A,,Clear,20,2013-12-08 02:35:00
9:55 PM,21.0,15.4,79,30.56,10.0,Calm,Calm,-,N/A,,Clear,0,2013-12-08 02:55:00
10:15 PM,20.8,15.4,80,30.56,10.0,Calm,Calm,-,N/A,,Clear,0,2013-12-08 03:15:00
10:35 PM,20.7,15.4,80,30.56,10.0,Calm,Calm,-,N/A,,Clear,0,2013-12-08 03:35:00
10:55 PM,20.3,15.4,81,30.55,10.0,Calm,Calm,-,N/A,,Clear,0,2013-12-08 03:55:00
11:15 PM,20.1,15.1,81,30.56,10.0,Calm,Calm,-,N/A,,Clear,0,2013-12-08 04:15:00
11:35 PM,19.4,14.7,82,30.56,10.0,Calm,Calm,-,N/A,,Clear,0,2013-12-08 04:35:00
11:55 PM,19.4,14.9,83,30.55,10.0,Calm,Calm,-,N/A,,Clear,0,2013-12-08 04:55:00